Weather History for Bennettsville, SC

Change the Weather History Date:

Wednesday, November 14, 2012

  Actual Average (KFLO) Record (KFLO)
Temperature  
Mean Temperature 48 °F 56 °F  
Max Temperature 55 °F 68 °F 84 °F (1993)
Min Temperature 41 °F 44 °F 22 °F (2013)
Degree Days  
Heating Degree Days 17 10  
Month to date heating degree days 113  
Since 1 July heating degree days 230  
Cooling Degree Days 0 1  
Month to date cooling degree days 14  
Year to date cooling degree days 2056  
Moisture  
Dew Point 36 °F    
Average Humidity 64    
Maximum Humidity 87    
Minimum Humidity 44    
Precipitation  
Precipitation 0.02 in 0.09 in 1.14 in (2008)
Month to date precipitation 1.22  
Year to date precipitation 38.45  
Sea Level Pressure  
Sea Level Pressure 30.38 in    
Wind  
Wind Speed 8 mph (NNE)    
Max Wind Speed 17 mph    
Max Gust Speed 22 mph    
Visibility 10 miles    
Events Rain    
T = Trace of Precipitation, MM = Missing Value Source: NWS Daily Summary

Daily Weather History Graph

Daily Weather History Graph

Search for Another Location

Airport:

Trip Planner

Search our weather history database for the weather conditions in past years. The results will help you decide how hot, cold, wet, or windy it might be!

Date:

Astronomy

Nov. 14, 2012 Rise Set
Actual Time 6:52 AM EST 5:14 PM EST
Civil Twilight 6:25 AM EST 5:41 PM EST
Nautical Twilight 5:54 AM EST 6:11 PM EST
Astronomical Twilight 5:25 AM EST 6:41 PM EST
Moon 7:37 AM EST (11/14) 6:03 PM EST (11/14)
Length of Visible Light 11h 15m
Length of Day
10h 22m
New Moon, 1% of the Moon is Illuminated
Nov 14
New Moon
Nov 20
First Quarter
Nov 28
Full
Dec 6
Last Quarter
Dec 13
New

Hourly Weather History & Observations

Time (EST) Temp. Windchill Dew Point Humidity Pressure Visibility Wind Dir Wind Speed Gust Speed Precip Events Conditions
12:15 AM 50.0 °F - 42.8 °F 76% 30.37 in 10.0 mi NNE 6.9 mph - N/A   Overcast
12:35 AM 46.4 °F 41.5 °F 41.0 °F 81% 30.37 in 10.0 mi NNE 10.4 mph - N/A   Scattered Clouds
12:55 AM 46.4 °F 43.5 °F 41.0 °F 81% 30.37 in 10.0 mi NNE 5.8 mph - N/A   Clear
1:15 AM 46.4 °F 43.5 °F 41.0 °F 81% 30.37 in 10.0 mi NNE 5.8 mph - N/A   Clear
1:35 AM 46.4 °F 42.9 °F 41.0 °F 81% 30.37 in 10.0 mi NNE 6.9 mph - N/A   Clear
1:55 AM 46.4 °F 42.4 °F 41.0 °F 81% 30.36 in 10.0 mi North 8.1 mph - N/A   Scattered Clouds
2:15 AM 44.6 °F 40.7 °F 41.0 °F 87% 30.36 in 10.0 mi NNE 6.9 mph - N/A   Clear
2:35 AM 44.6 °F 40.7 °F 41.0 °F 87% 30.37 in 10.0 mi NNE 6.9 mph - N/A   Clear
2:55 AM 44.6 °F 42.2 °F 41.0 °F 87% 30.37 in 10.0 mi NNE 4.6 mph - N/A   Clear
3:15 AM 44.6 °F 41.4 °F 39.2 °F 81% 30.37 in 10.0 mi NNE 5.8 mph - N/A   Clear
3:35 AM 42.8 °F 41.1 °F 39.2 °F 87% 30.37 in 10.0 mi North 3.5 mph - N/A   Clear
3:55 AM 42.8 °F 40.1 °F 39.2 °F 87% 30.37 in 10.0 mi North 4.6 mph - N/A   Clear
4:15 AM 42.8 °F 39.3 °F 39.2 °F 87% 30.38 in 10.0 mi North 5.8 mph - N/A   Clear
4:35 AM 42.8 °F 38.6 °F 39.2 °F 87% 30.38 in 10.0 mi North 6.9 mph - N/A   Clear
4:55 AM 42.8 °F 38.6 °F 39.2 °F 87% 30.39 in 10.0 mi North 6.9 mph - N/A   Clear
5:15 AM 42.8 °F 39.3 °F 39.2 °F 87% 30.39 in 10.0 mi NNE 5.8 mph - N/A   Clear
5:35 AM 42.8 °F 39.3 °F 37.4 °F 81% 30.39 in 10.0 mi North 5.8 mph - N/A   Clear
5:55 AM 42.8 °F 38.6 °F 37.4 °F 81% 30.40 in 10.0 mi North 6.9 mph - N/A   Clear
6:15 AM 42.8 °F 38.0 °F 35.6 °F 76% 30.40 in 10.0 mi North 8.1 mph - N/A   Clear
6:35 AM 41.0 °F 35.8 °F 35.6 °F 81% 30.41 in 10.0 mi North 8.1 mph - N/A   Scattered Clouds
6:55 AM 41.0 °F 35.8 °F 33.8 °F 76% 30.41 in 10.0 mi North 8.1 mph - N/A   Scattered Clouds
7:15 AM 41.0 °F 34.7 °F 33.8 °F 76% 30.41 in 10.0 mi North 10.4 mph - N/A   Clear
7:35 AM 41.0 °F 35.8 °F 33.8 °F 76% 30.42 in 10.0 mi North 8.1 mph - N/A   Clear
7:55 AM 42.8 °F 36.6 °F 32.0 °F 66% 30.43 in 10.0 mi North 11.5 mph - N/A   Clear
8:15 AM 42.8 °F 36.6 °F 32.0 °F 66% 30.44 in 10.0 mi NNE 11.5 mph 17.3 mph N/A   Scattered Clouds
8:35 AM 44.6 °F 39.2 °F 33.8 °F 66% 30.44 in 10.0 mi NNE 10.4 mph 16.1 mph N/A   Scattered Clouds
8:55 AM 44.6 °F 39.2 °F 33.8 °F 66% 30.45 in 10.0 mi NNE 10.4 mph - N/A   Scattered Clouds
9:15 AM 46.4 °F 40.4 °F 33.8 °F 62% 30.44 in 10.0 mi NNE 13.8 mph - N/A   Scattered Clouds
9:35 AM 46.4 °F 41.5 °F 35.6 °F 66% 30.45 in 10.0 mi NNE 10.4 mph 17.3 mph N/A   Clear
9:55 AM 48.2 °F - 35.6 °F 62% 30.44 in 10.0 mi NNE 17.3 mph 21.9 mph N/A   Mostly Cloudy
10:15 AM 46.4 °F 41.1 °F 35.6 °F 66% 30.44 in 10.0 mi NE 11.5 mph - N/A   Mostly Cloudy
10:35 AM 48.2 °F - 35.6 °F 62% 30.44 in 10.0 mi NE 12.7 mph 17.3 mph N/A   Mostly Cloudy
10:55 AM 50.0 °F - 37.4 °F 62% 30.44 in 10.0 mi NNE 8.1 mph - N/A   Scattered Clouds
11:15 AM 51.8 °F - 37.4 °F 58% 30.43 in 10.0 mi NE 11.5 mph 16.1 mph N/A   Clear
11:35 AM 51.8 °F - 37.4 °F 58% 30.42 in 10.0 mi North 11.5 mph - N/A   Clear
11:55 AM 51.8 °F - 37.4 °F 58% 30.42 in 10.0 mi NNE 11.5 mph 18.4 mph N/A   Clear
12:15 PM 53.6 °F - 35.6 °F 51% 30.41 in 10.0 mi NNE 10.4 mph - N/A   Scattered Clouds
12:35 PM 53.6 °F - 35.6 °F 51% 30.40 in 10.0 mi NNE 6.9 mph - N/A   Mostly Cloudy
12:55 PM 53.6 °F - 35.6 °F 51% 30.39 in 10.0 mi North 11.5 mph - N/A   Scattered Clouds
1:15 PM 55.4 °F - 35.6 °F 47% 30.38 in 10.0 mi NE 11.5 mph - N/A   Clear
1:35 PM 53.6 °F - 35.6 °F 51% 30.37 in 10.0 mi NNE 8.1 mph - N/A   Scattered Clouds
1:55 PM 53.6 °F - 35.6 °F 51% 30.36 in 10.0 mi NE 10.4 mph 16.1 mph N/A   Mostly Cloudy
2:15 PM 55.4 °F - 35.6 °F 47% 30.35 in 10.0 mi NE 9.2 mph 16.1 mph N/A   Overcast
2:35 PM 55.4 °F - 35.6 °F 47% 30.34 in 10.0 mi NNE 10.4 mph - N/A   Overcast
2:55 PM 55.4 °F - 35.6 °F 47% 30.34 in 10.0 mi North 8.1 mph - N/A   Scattered Clouds
3:15 PM 55.4 °F - 35.6 °F 47% 30.34 in 10.0 mi North 9.2 mph - N/A   Scattered Clouds
3:35 PM 55.4 °F - 33.8 °F 44% 30.34 in 10.0 mi NNE 9.2 mph - N/A   Mostly Cloudy
3:55 PM 55.4 °F - 33.8 °F 44% 30.34 in 10.0 mi NE 6.9 mph - N/A   Mostly Cloudy
4:15 PM 53.6 °F - 33.8 °F 47% 30.35 in 10.0 mi NE 9.2 mph - N/A   Scattered Clouds
4:35 PM 53.6 °F - 33.8 °F 47% 30.34 in 10.0 mi North 6.9 mph - N/A   Scattered Clouds
4:55 PM 51.8 °F - 35.6 °F 54% 30.34 in 10.0 mi North 5.8 mph - N/A   Scattered Clouds
5:15 PM 51.8 °F - 35.6 °F 54% 30.34 in 10.0 mi North 5.8 mph - N/A   Clear
5:35 PM 50.0 °F - 35.6 °F 58% 30.34 in 10.0 mi North 4.6 mph - N/A   Mostly Cloudy
5:55 PM 51.8 °F - 35.6 °F 54% 30.34 in 10.0 mi North 5.8 mph - N/A   Overcast
6:15 PM 51.8 °F - 35.6 °F 54% 30.34 in 10.0 mi NNE 4.6 mph - N/A   Overcast
6:35 PM 51.8 °F - 35.6 °F 54% 30.35 in 10.0 mi NNE 5.8 mph - N/A   Overcast
6:55 PM 51.8 °F - 35.6 °F 54% 30.36 in 10.0 mi NNE 5.8 mph - N/A   Overcast
7:15 PM 50.0 °F - 35.6 °F 58% 30.35 in 10.0 mi North 5.8 mph - N/A   Overcast
7:35 PM 50.0 °F - 35.6 °F 58% 30.36 in 10.0 mi NNW 4.6 mph - N/A   Overcast
7:55 PM 50.0 °F - 35.6 °F 58% 30.36 in 10.0 mi North 3.5 mph - N/A   Overcast
8:15 PM 50.0 °F - 35.6 °F 58% 30.36 in 10.0 mi NNW 5.8 mph - N/A   Overcast
8:35 PM 50.0 °F - 35.6 °F 58% 30.36 in 10.0 mi North 5.8 mph - N/A   Overcast
8:55 PM 50.0 °F - 35.6 °F 58% 30.36 in 10.0 mi North 3.5 mph - N/A   Overcast
9:15 PM 50.0 °F - 35.6 °F 58% 30.37 in 10.0 mi North 5.8 mph - N/A   Overcast
9:35 PM 50.0 °F - 33.8 °F 54% 30.36 in 10.0 mi North 8.1 mph - N/A   Overcast
9:55 PM 50.0 °F - 33.8 °F 54% 30.36 in 10.0 mi North 8.1 mph - N/A   Overcast
10:15 PM 50.0 °F - 33.8 °F 54% 30.35 in 10.0 mi North 6.9 mph - N/A   Overcast
10:35 PM 50.0 °F - 33.8 °F 54% 30.34 in 10.0 mi North 6.9 mph - N/A   Overcast
10:55 PM 50.0 °F - 35.6 °F 58% 30.35 in 10.0 mi North 5.8 mph - N/A   Overcast
11:15 PM 50.0 °F - 35.6 °F 58% 30.34 in 10.0 mi NNE 8.1 mph - N/A   Overcast
11:35 PM 50.0 °F - 35.6 °F 58% 30.32 in 10.0 mi NNE 10.4 mph - N/A Rain Rain
11:55 PM 46.4 °F 42.9 °F 39.2 °F 76% 30.33 in 5.0 mi NE 6.9 mph - 0.02 in Rain Rain